Location: Unspecified
(0.0000°N, 0.0000°E)
Time: 07:21:02
(UTC+00:00)

Envisat - Pass Details

Date: 25 July 2021
Orbit: 764 x 766 km, 98.2° (Epoch: 31 July)

Event Time Altitude Azimuth Distance (km) Brightness Sun altitude
Rises 04:16:31 0° 31° (NNE) 3,214 7.0 -25.8°
Reaches altitude 10° 04:19:03 10° 42° (NE) 2,291 6.3 -25.2°
Maximum altitude 04:23:27 30° 102° (ESE) 1,335 4.7 -24.2°
Drops below altitude 10° 04:27:51 10° 163° (SSE) 2,300 5.4 -23.2°
Sets 04:30:24 0° 173° (S) 3,229 6.1 -22.6°
